Year,Month,Day,Hour,Minute,Value (Times are PST for temperature in C)
2006,12,14,00,00,4.00
2006,12,14,00,01,4.10
2006,12,14,00,02,4.20
2006,12,14,00,03,4.20
2006,12,14,00,04,4.30
2006,12,14,00,05,4.40
2006,12,14,00,06,4.50
2006,12,14,00,07,4.60
2006,12,14,00,08,4.60
2006,12,14,00,09,4.70
2006,12,14,00,10,4.70
2006,12,14,00,11,4.70
2006,12,14,00,12,4.70
2006,12,14,00,13,4.70
2006,12,14,00,14,4.70
2006,12,14,00,15,4.70
2006,12,14,00,16,4.70
2006,12,14,00,17,4.60
2006,12,14,00,18,4.60
2006,12,14,00,19,4.60
2006,12,14,00,20,4.50
2006,12,14,00,21,4.50
2006,12,14,00,22,4.40
2006,12,14,00,23,4.40
2006,12,14,00,24,4.30
2006,12,14,00,25,4.20
2006,12,14,00,26,4.20
2006,12,14,00,27,4.20
2006,12,14,00,28,4.10
2006,12,14,00,29,4.10
2006,12,14,00,30,4.00
2006,12,14,00,31,4.00
2006,12,14,00,32,3.90
2006,12,14,00,33,3.90
2006,12,14,00,34,3.80
2006,12,14,00,35,3.80
2006,12,14,00,36,3.80
2006,12,14,00,37,3.70
2006,12,14,00,38,3.70
2006,12,14,00,39,3.60
2006,12,14,00,40,3.60
2006,12,14,00,41,3.50
2006,12,14,00,42,3.50
2006,12,14,00,43,3.40
2006,12,14,00,44,3.40
2006,12,14,00,45,3.30
2006,12,14,00,46,3.30
2006,12,14,00,47,3.30
2006,12,14,00,48,3.20
2006,12,14,00,49,3.20
2006,12,14,00,50,3.10
2006,12,14,00,51,3.10
2006,12,14,00,52,3.10
2006,12,14,00,53,3.10
2006,12,14,00,54,3.00
2006,12,14,00,55,2.90
2006,12,14,00,56,2.90
2006,12,14,00,57,2.90
2006,12,14,00,58,2.90
2006,12,14,00,59,2.90
2006,12,14,01,00,2.90
2006,12,14,01,01,2.90
2006,12,14,01,02,2.90
2006,12,14,01,03,2.90
2006,12,14,01,04,2.90
2006,12,14,01,05,2.90
2006,12,14,01,06,2.80
2006,12,14,01,07,2.80
2006,12,14,01,08,2.80
2006,12,14,01,09,2.80
2006,12,14,01,10,2.80
2006,12,14,01,11,2.80
2006,12,14,01,12,2.80
2006,12,14,01,13,2.70
2006,12,14,01,14,2.70
2006,12,14,01,15,2.70
2006,12,14,01,16,2.70
2006,12,14,01,17,2.70
2006,12,14,01,18,2.70
2006,12,14,01,19,2.70
2006,12,14,01,20,2.70
2006,12,14,01,21,2.70
2006,12,14,01,22,2.70
2006,12,14,01,23,2.70
2006,12,14,01,24,2.70
2006,12,14,01,25,2.70
2006,12,14,01,26,2.70
2006,12,14,01,27,2.70
2006,12,14,01,28,2.70
2006,12,14,01,29,2.70
2006,12,14,01,30,2.70
2006,12,14,01,31,2.70
2006,12,14,01,32,2.70
2006,12,14,01,33,2.70
2006,12,14,01,34,2.70
2006,12,14,01,35,2.70
2006,12,14,01,36,2.70
2006,12,14,01,37,2.70
2006,12,14,01,38,2.70
2006,12,14,01,39,2.70
2006,12,14,01,40,2.70
2006,12,14,01,41,2.70
2006,12,14,01,42,2.70
2006,12,14,01,43,2.70
2006,12,14,01,44,2.70
2006,12,14,01,45,2.70
2006,12,14,01,46,2.70
2006,12,14,01,47,2.70
2006,12,14,01,48,2.70
2006,12,14,01,49,2.70
2006,12,14,01,50,2.70
2006,12,14,01,51,2.70
2006,12,14,01,52,2.70
2006,12,14,01,53,2.70
2006,12,14,01,54,2.70
2006,12,14,01,55,2.70
2006,12,14,01,56,2.70
2006,12,14,01,57,2.70
2006,12,14,01,58,2.70
2006,12,14,01,59,2.70
2006,12,14,02,00,2.70
2006,12,14,02,01,2.70
2006,12,14,02,02,2.70
2006,12,14,02,03,2.70
2006,12,14,02,04,2.70
2006,12,14,02,05,2.80
2006,12,14,02,06,2.80
2006,12,14,02,07,2.80
2006,12,14,02,08,2.80
2006,12,14,02,09,2.80
2006,12,14,02,10,2.90
2006,12,14,02,11,2.90
2006,12,14,02,12,2.90
2006,12,14,02,13,2.90
2006,12,14,02,14,2.90
2006,12,14,02,15,2.90
2006,12,14,02,16,2.90
2006,12,14,02,17,2.90
2006,12,14,02,18,3.00
2006,12,14,02,19,3.10
2006,12,14,02,20,3.10
2006,12,14,02,21,3.10
2006,12,14,02,22,3.20
2006,12,14,02,23,3.20
2006,12,14,02,24,3.30
2006,12,14,02,25,3.30
2006,12,14,02,26,3.30
2006,12,14,02,27,3.30
2006,12,14,02,28,3.30
2006,12,14,02,29,3.30
2006,12,14,02,30,3.30
2006,12,14,02,31,3.30
2006,12,14,02,32,3.30
2006,12,14,02,33,3.30
2006,12,14,02,34,3.30
2006,12,14,02,35,3.30
2006,12,14,02,36,3.30
2006,12,14,02,37,3.30
2006,12,14,02,38,3.30
2006,12,14,02,39,3.20
2006,12,14,02,40,3.20
2006,12,14,02,41,3.20
2006,12,14,02,42,3.30
2006,12,14,02,43,3.30
2006,12,14,02,44,3.30
2006,12,14,02,45,3.30
2006,12,14,02,46,3.30
2006,12,14,02,47,3.20
2006,12,14,02,48,3.20
2006,12,14,02,49,3.20
2006,12,14,02,50,3.20
2006,12,14,02,51,3.10
2006,12,14,02,52,3.10
2006,12,14,02,53,3.10
2006,12,14,02,54,3.10
2006,12,14,02,55,3.10
2006,12,14,02,56,3.10
2006,12,14,02,57,3.10
2006,12,14,02,58,3.10
2006,12,14,02,59,3.10
2006,12,14,03,00,3.10
2006,12,14,03,01,3.10
2006,12,14,03,02,3.10
2006,12,14,03,03,2.90
2006,12,14,03,04,2.90
2006,12,14,03,05,2.90
2006,12,14,03,06,2.90
2006,12,14,03,07,2.90
2006,12,14,03,08,2.90
2006,12,14,03,09,2.90
2006,12,14,03,10,2.90
2006,12,14,03,11,3.00
2006,12,14,03,12,3.10
2006,12,14,03,13,3.20
2006,12,14,03,14,3.30
2006,12,14,03,15,3.50
2006,12,14,03,16,3.60
2006,12,14,03,17,3.60
2006,12,14,03,18,3.70
2006,12,14,03,19,3.80
2006,12,14,03,20,3.80
2006,12,14,03,21,3.80
2006,12,14,03,22,3.80
2006,12,14,03,23,3.80
2006,12,14,03,24,3.80
2006,12,14,03,25,3.80
2006,12,14,03,26,3.80
2006,12,14,03,27,3.80
2006,12,14,03,28,3.80
2006,12,14,03,29,3.80
2006,12,14,03,30,3.80
2006,12,14,03,31,3.80
2006,12,14,03,32,3.80
2006,12,14,03,33,3.90
2006,12,14,03,34,4.00
2006,12,14,03,35,4.00
2006,12,14,03,36,4.00
2006,12,14,03,37,4.10
2006,12,14,03,38,4.10
2006,12,14,03,39,4.10
2006,12,14,03,40,4.20
2006,12,14,03,41,4.20
2006,12,14,03,42,4.20
2006,12,14,03,43,4.20
2006,12,14,03,44,4.20
2006,12,14,03,45,4.20
2006,12,14,03,46,4.30
2006,12,14,03,47,4.30
2006,12,14,03,48,4.30
2006,12,14,03,49,4.20
2006,12,14,03,50,4.20
2006,12,14,03,51,4.20
2006,12,14,03,52,4.20
2006,12,14,03,53,4.10
2006,12,14,03,54,4.10
2006,12,14,03,55,4.00
2006,12,14,03,56,4.00
2006,12,14,03,57,3.90
2006,12,14,03,58,3.90
2006,12,14,03,59,3.80
2006,12,14,04,00,3.80
2006,12,14,04,01,3.80
2006,12,14,04,02,3.70
2006,12,14,04,03,3.70
2006,12,14,04,04,3.60
2006,12,14,04,05,3.60
2006,12,14,04,06,3.50
2006,12,14,04,07,3.50
2006,12,14,04,08,3.50
2006,12,14,04,09,3.50
2006,12,14,04,10,3.50
2006,12,14,04,11,3.60
2006,12,14,04,12,3.60
2006,12,14,04,13,3.60
2006,12,14,04,14,3.60
2006,12,14,04,15,3.60
2006,12,14,04,16,3.50
2006,12,14,04,17,3.50
2006,12,14,04,18,3.50
2006,12,14,04,19,3.40
2006,12,14,04,20,3.40
2006,12,14,04,21,3.30
2006,12,14,04,22,3.30
2006,12,14,04,23,3.30
2006,12,14,04,24,3.30
2006,12,14,04,25,3.30
2006,12,14,04,26,3.30
2006,12,14,04,27,3.20
2006,12,14,04,28,3.20
2006,12,14,04,29,3.20
2006,12,14,04,30,3.20
2006,12,14,04,31,3.20
2006,12,14,04,32,3.20
2006,12,14,04,33,3.20
2006,12,14,04,34,3.20
2006,12,14,04,35,3.20
2006,12,14,04,36,3.20
2006,12,14,04,37,3.20
2006,12,14,04,38,3.20
2006,12,14,04,39,3.10
2006,12,14,04,40,3.10
2006,12,14,04,41,3.10
2006,12,14,04,42,3.10
2006,12,14,04,43,3.10
2006,12,14,04,44,3.10
2006,12,14,04,45,3.10
2006,12,14,04,46,3.10
2006,12,14,04,47,3.10
2006,12,14,04,48,3.10
2006,12,14,04,49,3.10
2006,12,14,04,50,3.20
2006,12,14,04,51,3.20
2006,12,14,04,52,3.30
2006,12,14,04,53,3.30
2006,12,14,04,54,3.40
2006,12,14,04,55,3.40
2006,12,14,04,56,3.40
2006,12,14,04,57,3.50
2006,12,14,04,58,3.50
2006,12,14,04,59,3.50
2006,12,14,05,00,3.60
2006,12,14,05,01,3.60
2006,12,14,05,02,3.70
2006,12,14,05,03,3.70
2006,12,14,05,04,3.70
2006,12,14,05,05,3.80
2006,12,14,05,06,3.80
2006,12,14,05,07,3.80
2006,12,14,05,08,3.80
2006,12,14,05,09,3.80
2006,12,14,05,10,3.80
2006,12,14,05,11,3.90
2006,12,14,05,12,3.90
2006,12,14,05,13,4.00
2006,12,14,05,14,4.00
2006,12,14,05,15,4.10
2006,12,14,05,16,4.20
2006,12,14,05,17,4.20
2006,12,14,05,18,4.20
2006,12,14,05,19,4.30
2006,12,14,05,20,4.40
2006,12,14,05,21,4.40
2006,12,14,05,22,4.40
2006,12,14,05,23,4.50
2006,12,14,05,24,4.50
2006,12,14,05,25,4.50
2006,12,14,05,26,4.60
2006,12,14,05,27,4.60
2006,12,14,05,28,4.60
2006,12,14,05,29,4.60
2006,12,14,05,30,4.60
2006,12,14,05,31,4.70
2006,12,14,05,32,4.70
2006,12,14,05,33,4.70
2006,12,14,05,34,4.70
2006,12,14,05,35,4.70
2006,12,14,05,36,4.80
2006,12,14,05,37,4.80
2006,12,14,05,38,4.80
2006,12,14,05,39,4.80
2006,12,14,05,40,4.80
2006,12,14,05,41,4.80
2006,12,14,05,42,4.80
2006,12,14,05,43,4.80
2006,12,14,05,44,4.80
2006,12,14,05,45,4.80
2006,12,14,05,46,4.80
2006,12,14,05,47,4.90
2006,12,14,05,48,4.90
2006,12,14,05,49,4.90
2006,12,14,05,50,4.90
2006,12,14,05,51,4.90
2006,12,14,05,52,4.90
2006,12,14,05,53,4.90
2006,12,14,05,54,4.90
2006,12,14,05,55,4.90
2006,12,14,05,56,4.90
2006,12,14,05,57,4.90
2006,12,14,05,58,4.90
2006,12,14,05,59,4.90
2006,12,14,06,00,4.90
2006,12,14,06,01,4.90
2006,12,14,06,02,4.90
2006,12,14,06,03,5.00
2006,12,14,06,04,5.10
2006,12,14,06,05,5.10
2006,12,14,06,06,5.10
2006,12,14,06,07,5.10
2006,12,14,06,08,5.10
2006,12,14,06,09,5.10
2006,12,14,06,10,5.10
2006,12,14,06,11,5.10
2006,12,14,06,12,5.10
2006,12,14,06,13,5.10
2006,12,14,06,14,5.10
2006,12,14,06,15,5.10
2006,12,14,06,16,5.10
2006,12,14,06,17,5.10
2006,12,14,06,18,5.10
2006,12,14,06,19,5.20
2006,12,14,06,20,5.30
2006,12,14,06,21,5.30
2006,12,14,06,22,5.30
2006,12,14,06,23,5.30
2006,12,14,06,24,5.30
2006,12,14,06,25,5.30
2006,12,14,06,26,5.30
2006,12,14,06,27,5.30
2006,12,14,06,28,5.30
2006,12,14,06,29,5.30
2006,12,14,06,30,5.30
2006,12,14,06,31,5.30
2006,12,14,06,32,5.30
2006,12,14,06,33,5.30
2006,12,14,06,34,5.30
2006,12,14,06,35,5.30
2006,12,14,06,36,5.30
2006,12,14,06,37,5.40
2006,12,14,06,38,5.40
2006,12,14,06,39,5.50
2006,12,14,06,40,5.50
2006,12,14,06,41,5.50
2006,12,14,06,42,5.40
2006,12,14,06,43,5.40
2006,12,14,06,44,5.40
2006,12,14,06,45,5.40
2006,12,14,06,46,5.40
2006,12,14,06,47,5.40
2006,12,14,06,48,5.40
2006,12,14,06,49,5.40
2006,12,14,06,50,5.40
2006,12,14,06,51,5.40
2006,12,14,06,52,5.30
2006,12,14,06,53,5.40
2006,12,14,06,54,5.40
2006,12,14,06,55,5.40
2006,12,14,06,56,5.40
2006,12,14,06,57,5.50
2006,12,14,06,58,5.50
2006,12,14,06,59,5.50
2006,12,14,07,00,5.50
2006,12,14,07,01,5.50
2006,12,14,07,02,5.50
2006,12,14,07,03,5.50
2006,12,14,07,04,5.50
2006,12,14,07,05,5.50
2006,12,14,07,06,5.50
2006,12,14,07,07,5.50
2006,12,14,07,08,5.50
2006,12,14,07,09,5.40
2006,12,14,07,10,5.40
2006,12,14,07,11,5.40
2006,12,14,07,12,5.40
2006,12,14,07,13,5.50
2006,12,14,07,14,5.50
2006,12,14,07,15,5.50
2006,12,14,07,16,5.50
2006,12,14,07,17,5.50
2006,12,14,07,18,5.50
2006,12,14,07,19,5.50
2006,12,14,07,20,5.50
2006,12,14,07,21,5.50
2006,12,14,07,22,5.40
2006,12,14,07,23,5.40
2006,12,14,07,24,5.40
2006,12,14,07,25,5.40
2006,12,14,07,26,5.40
2006,12,14,07,27,5.30
2006,12,14,07,28,5.30
2006,12,14,07,29,5.30
2006,12,14,07,30,5.30
2006,12,14,07,31,5.30
2006,12,14,07,32,5.30
2006,12,14,07,33,5.30
2006,12,14,07,34,5.30
2006,12,14,07,35,5.30
2006,12,14,07,36,5.30
2006,12,14,07,37,5.30
2006,12,14,07,38,5.40
2006,12,14,07,39,5.40
2006,12,14,07,40,5.40
2006,12,14,07,41,5.50
2006,12,14,07,42,5.50
2006,12,14,07,43,5.50
2006,12,14,07,44,5.50
2006,12,14,07,45,5.50
2006,12,14,07,46,5.50
2006,12,14,07,47,5.50
2006,12,14,07,48,5.50
2006,12,14,07,49,5.50
2006,12,14,07,50,5.40
2006,12,14,07,51,5.40
2006,12,14,07,52,5.40
2006,12,14,07,53,5.40
2006,12,14,07,54,5.40
2006,12,14,07,55,5.40
2006,12,14,07,56,5.40
2006,12,14,07,57,5.40
2006,12,14,07,58,5.40
2006,12,14,07,59,5.40
2006,12,14,08,00,5.40
2006,12,14,08,01,5.50
2006,12,14,08,02,5.50
2006,12,14,08,03,5.50
2006,12,14,08,04,5.50
2006,12,14,08,05,5.50
2006,12,14,08,06,5.50
2006,12,14,08,07,5.50
2006,12,14,08,08,5.50
2006,12,14,08,09,5.50
2006,12,14,08,10,5.50
2006,12,14,08,11,5.50
2006,12,14,08,12,5.50
2006,12,14,08,13,5.50
2006,12,14,08,14,5.50
2006,12,14,08,15,5.50
2006,12,14,08,16,5.50
2006,12,14,08,17,5.50
2006,12,14,08,18,5.50
2006,12,14,08,19,5.50
2006,12,14,08,20,5.50
2006,12,14,08,21,5.50
2006,12,14,08,22,5.50
2006,12,14,08,23,5.50
2006,12,14,08,24,5.50
2006,12,14,08,25,5.50
2006,12,14,08,26,5.60
2006,12,14,08,27,5.60
2006,12,14,08,28,5.60
2006,12,14,08,29,5.60
2006,12,14,08,30,5.60
2006,12,14,08,31,5.60
2006,12,14,08,32,5.60
2006,12,14,08,33,5.60
2006,12,14,08,34,5.60
2006,12,14,08,35,5.60
2006,12,14,08,36,5.60
2006,12,14,08,37,5.60
2006,12,14,08,38,5.60
2006,12,14,08,39,5.60
2006,12,14,08,40,5.60
2006,12,14,08,41,5.60
2006,12,14,08,42,5.60
2006,12,14,08,43,5.70
2006,12,14,08,44,5.70
2006,12,14,08,45,5.70
2006,12,14,08,46,5.70
2006,12,14,08,47,5.70
2006,12,14,08,48,5.70
2006,12,14,08,49,5.70
2006,12,14,08,50,5.70
2006,12,14,08,51,5.70
2006,12,14,08,52,5.70
2006,12,14,08,53,5.70
2006,12,14,08,54,5.80
2006,12,14,08,55,5.80
2006,12,14,08,56,5.80
2006,12,14,08,57,5.80
2006,12,14,08,58,5.80
2006,12,14,08,59,5.80
2006,12,14,09,00,5.80
2006,12,14,09,01,5.80
2006,12,14,09,02,5.80
2006,12,14,09,03,5.80
2006,12,14,09,04,5.80
2006,12,14,09,05,5.80
2006,12,14,09,06,5.80
2006,12,14,09,07,5.80
2006,12,14,09,08,5.80
2006,12,14,09,09,5.80
2006,12,14,09,10,5.80
2006,12,14,09,11,5.70
2006,12,14,09,12,5.70
2006,12,14,09,13,5.70
2006,12,14,09,14,5.70
2006,12,14,09,15,5.70
2006,12,14,09,16,5.70
2006,12,14,09,17,5.70
2006,12,14,09,18,5.70
2006,12,14,09,19,5.70
2006,12,14,09,20,5.70
2006,12,14,09,21,5.70
2006,12,14,09,22,5.70
2006,12,14,09,23,5.70
2006,12,14,09,24,5.70
2006,12,14,09,25,5.60
2006,12,14,09,26,5.60
2006,12,14,09,27,5.60
2006,12,14,09,28,5.60
2006,12,14,09,29,5.60
2006,12,14,09,30,5.60
2006,12,14,09,31,5.60
2006,12,14,09,32,5.60
2006,12,14,09,33,5.60
2006,12,14,09,34,5.60
2006,12,14,09,35,5.60
2006,12,14,09,36,5.50
2006,12,14,09,37,5.50
2006,12,14,09,38,5.50
2006,12,14,09,39,5.50
2006,12,14,09,40,5.50
2006,12,14,09,41,5.50
2006,12,14,09,42,5.50
2006,12,14,09,43,5.50
2006,12,14,09,44,5.50
2006,12,14,09,45,5.50
2006,12,14,09,46,5.50
2006,12,14,09,47,5.50
2006,12,14,09,48,5.50
2006,12,14,09,49,5.50
2006,12,14,09,50,5.50
2006,12,14,09,51,5.50
2006,12,14,09,52,5.50
2006,12,14,09,53,5.50
2006,12,14,09,54,5.60
2006,12,14,09,55,5.60
2006,12,14,09,56,5.50
2006,12,14,09,57,5.60
2006,12,14,09,58,5.60
2006,12,14,09,59,5.60
2006,12,14,10,00,5.60
2006,12,14,10,01,5.60
2006,12,14,10,02,5.60
2006,12,14,10,03,5.60
2006,12,14,10,04,5.60
2006,12,14,10,05,5.60
2006,12,14,10,06,5.60
2006,12,14,10,07,5.60
2006,12,14,10,08,5.60
2006,12,14,10,09,5.60
2006,12,14,10,10,5.60
2006,12,14,10,11,5.60
2006,12,14,10,12,5.60
2006,12,14,10,13,5.60
2006,12,14,10,14,5.60
2006,12,14,10,15,5.60
2006,12,14,10,16,5.60
2006,12,14,10,17,5.60
2006,12,14,10,18,5.60
2006,12,14,10,19,5.50
2006,12,14,10,20,5.50
2006,12,14,10,21,5.50
2006,12,14,10,22,5.50
2006,12,14,10,23,5.50
2006,12,14,10,24,5.50
2006,12,14,10,25,5.50
2006,12,14,10,26,5.50
2006,12,14,10,27,5.50
2006,12,14,10,28,5.50
2006,12,14,10,29,5.40
2006,12,14,10,30,5.40
2006,12,14,10,31,5.40
2006,12,14,10,32,5.40
2006,12,14,10,33,5.40
2006,12,14,10,34,5.40
2006,12,14,10,35,5.40
2006,12,14,10,36,5.30
2006,12,14,10,37,5.30
2006,12,14,10,38,5.30
2006,12,14,10,39,5.30
2006,12,14,10,40,5.30
2006,12,14,10,41,5.30
2006,12,14,10,42,5.30
2006,12,14,10,43,5.30
2006,12,14,10,44,5.30
2006,12,14,10,45,5.30
2006,12,14,10,46,5.30
2006,12,14,10,47,5.30
2006,12,14,10,48,5.30
2006,12,14,10,49,5.20
2006,12,14,10,50,5.20
2006,12,14,10,51,5.20
2006,12,14,10,52,5.20
2006,12,14,10,53,5.10
2006,12,14,10,54,5.10
2006,12,14,10,55,5.10
2006,12,14,10,56,5.10
2006,12,14,10,57,5.10
2006,12,14,10,58,5.10
2006,12,14,10,59,5.10
2006,12,14,11,00,5.10
2006,12,14,11,01,5.10
2006,12,14,11,02,5.10
2006,12,14,11,03,5.10
2006,12,14,11,04,5.10
2006,12,14,11,05,5.10
2006,12,14,11,06,5.10
2006,12,14,11,07,5.10
2006,12,14,11,08,5.10
2006,12,14,11,09,5.10
2006,12,14,11,10,5.10
2006,12,14,11,11,5.10
2006,12,14,11,12,5.10
2006,12,14,11,13,5.10
2006,12,14,11,14,5.10
2006,12,14,11,15,5.10
2006,12,14,11,16,5.10
2006,12,14,11,17,5.10
2006,12,14,11,18,5.10
2006,12,14,11,19,5.10
2006,12,14,11,20,5.10
2006,12,14,11,21,5.10
2006,12,14,11,22,5.10
2006,12,14,11,23,5.10
2006,12,14,11,24,5.00
2006,12,14,11,25,4.90
2006,12,14,11,26,4.90
2006,12,14,11,27,4.90
2006,12,14,11,28,4.90
2006,12,14,11,29,4.90
2006,12,14,11,30,4.90
2006,12,14,11,31,4.90
2006,12,14,11,32,4.80
2006,12,14,11,33,4.80
2006,12,14,11,34,4.80
2006,12,14,11,35,4.70
2006,12,14,11,36,4.70
2006,12,14,11,37,4.60
2006,12,14,11,38,4.60
2006,12,14,11,39,4.60
2006,12,14,11,40,4.60
2006,12,14,11,41,4.60
2006,12,14,11,42,4.60
2006,12,14,11,43,4.50
2006,12,14,11,44,4.50
2006,12,14,11,45,4.50
2006,12,14,11,46,4.40
2006,12,14,11,47,4.40
2006,12,14,11,48,4.40
2006,12,14,11,49,4.40
2006,12,14,11,50,4.30
2006,12,14,11,51,4.30
2006,12,14,11,52,4.30
2006,12,14,11,53,4.30
2006,12,14,11,54,4.20
2006,12,14,11,55,4.20
2006,12,14,11,56,4.20
2006,12,14,11,57,4.20
2006,12,14,11,58,4.20
2006,12,14,11,59,4.20
2006,12,14,12,00,4.20
2006,12,14,12,01,4.20
2006,12,14,12,02,4.10
2006,12,14,12,03,4.10
2006,12,14,12,04,4.10
2006,12,14,12,05,4.10
2006,12,14,12,06,4.00
2006,12,14,12,07,4.00
2006,12,14,12,08,4.00
2006,12,14,12,09,4.00
2006,12,14,12,10,4.00
2006,12,14,12,11,4.00
2006,12,14,12,12,4.00
2006,12,14,12,13,4.00
2006,12,14,12,14,4.00
2006,12,14,12,15,4.00
2006,12,14,12,16,4.00
2006,12,14,12,17,4.00
2006,12,14,12,18,4.00
2006,12,14,12,19,4.00
2006,12,14,12,20,4.00
2006,12,14,12,21,4.00
2006,12,14,12,22,4.00
2006,12,14,12,23,3.90
2006,12,14,12,24,3.90
2006,12,14,12,25,3.90
2006,12,14,12,26,3.90
2006,12,14,12,27,3.80
2006,12,14,12,28,3.80
2006,12,14,12,29,3.80
2006,12,14,12,30,3.90
2006,12,14,12,31,3.90
2006,12,14,12,32,3.90
2006,12,14,12,33,3.90
2006,12,14,12,34,3.90
2006,12,14,12,35,3.90
2006,12,14,12,36,3.90
2006,12,14,12,37,3.90
2006,12,14,12,38,3.90
2006,12,14,12,39,3.90
2006,12,14,12,40,3.90
2006,12,14,12,41,3.90
2006,12,14,12,42,3.80
2006,12,14,12,43,3.80
2006,12,14,12,44,3.80
2006,12,14,12,45,3.80
2006,12,14,12,46,3.80
2006,12,14,12,47,3.80
2006,12,14,12,48,3.80
2006,12,14,12,49,3.80
2006,12,14,12,50,3.80
2006,12,14,12,51,3.80
2006,12,14,12,52,3.80
2006,12,14,12,53,3.80
2006,12,14,12,54,3.80
2006,12,14,12,55,3.80
2006,12,14,12,56,3.80
2006,12,14,12,57,3.80
2006,12,14,12,58,3.80
2006,12,14,12,59,3.70
2006,12,14,13,00,3.70
2006,12,14,13,01,3.70
2006,12,14,13,02,3.70
2006,12,14,13,03,3.70
2006,12,14,13,04,3.70
2006,12,14,13,05,3.70
2006,12,14,13,06,3.70
2006,12,14,13,07,3.70
2006,12,14,13,08,3.70
2006,12,14,13,09,3.70
2006,12,14,13,10,3.70
2006,12,14,13,11,3.70
2006,12,14,13,12,3.70
2006,12,14,13,13,3.70
2006,12,14,13,14,3.70
2006,12,14,13,15,3.80
2006,12,14,13,16,3.80
2006,12,14,13,17,3.80
2006,12,14,13,18,3.80
2006,12,14,13,19,3.80
2006,12,14,13,20,3.80
2006,12,14,13,21,3.80
2006,12,14,13,22,3.80
2006,12,14,13,23,3.90
2006,12,14,13,24,3.90
2006,12,14,13,25,3.90
2006,12,14,13,26,3.90
2006,12,14,13,27,3.90
2006,12,14,13,28,3.90
2006,12,14,13,29,3.90
2006,12,14,13,30,3.90
2006,12,14,13,31,4.00
2006,12,14,13,32,4.00
2006,12,14,13,33,4.00
2006,12,14,13,34,4.00
2006,12,14,13,35,4.00
2006,12,14,13,36,4.00
2006,12,14,13,37,4.00
2006,12,14,13,38,4.00
2006,12,14,13,39,4.00
2006,12,14,13,40,4.00
2006,12,14,13,41,4.00
2006,12,14,13,42,4.00
2006,12,14,13,43,4.00
2006,12,14,13,44,4.00
2006,12,14,13,45,4.00
2006,12,14,13,46,4.00
2006,12,14,13,47,4.00
2006,12,14,13,48,4.00
2006,12,14,13,49,4.00
2006,12,14,13,50,4.00
2006,12,14,13,51,4.00
2006,12,14,13,52,4.00
2006,12,14,13,53,4.00
2006,12,14,13,54,4.00
2006,12,14,13,55,4.00
2006,12,14,13,56,4.00
2006,12,14,13,57,4.10
2006,12,14,13,58,4.10
2006,12,14,13,59,4.10
2006,12,14,14,00,4.10
2006,12,14,14,01,4.10
2006,12,14,14,02,4.10
2006,12,14,14,03,4.10
2006,12,14,14,04,4.10
2006,12,14,14,05,4.10
2006,12,14,14,06,4.20
2006,12,14,14,07,4.20
2006,12,14,14,08,4.20
2006,12,14,14,09,4.20
2006,12,14,14,10,4.20
2006,12,14,14,11,4.20
2006,12,14,14,12,4.20
2006,12,14,14,13,4.10
2006,12,14,14,14,4.10
2006,12,14,14,15,4.10
2006,12,14,14,16,4.10
2006,12,14,14,17,4.10
2006,12,14,14,18,4.10
2006,12,14,14,19,4.10
2006,12,14,14,20,4.10
2006,12,14,14,21,4.10
2006,12,14,14,22,4.10
2006,12,14,14,23,4.10
2006,12,14,14,24,4.00
2006,12,14,14,25,4.00
2006,12,14,14,26,4.00
2006,12,14,14,27,4.00
2006,12,14,14,28,4.00
2006,12,14,14,29,4.00
2006,12,14,14,30,4.00
2006,12,14,14,31,4.00
2006,12,14,14,32,4.00
2006,12,14,14,33,4.00
2006,12,14,14,34,3.90
2006,12,14,14,35,3.90
2006,12,14,14,36,3.90
2006,12,14,14,37,3.80
2006,12,14,14,38,3.80
2006,12,14,14,39,3.80
2006,12,14,14,40,3.80
2006,12,14,14,41,3.80
2006,12,14,14,42,3.70
2006,12,14,14,43,3.70
2006,12,14,14,44,3.70
2006,12,14,14,45,3.60
2006,12,14,14,46,3.60
2006,12,14,14,47,3.60
2006,12,14,14,48,3.60
2006,12,14,14,49,3.60
2006,12,14,14,50,3.60
2006,12,14,14,51,3.70
2006,12,14,14,52,3.70
2006,12,14,14,53,3.70
2006,12,14,14,54,3.80
2006,12,14,14,55,3.80
2006,12,14,14,56,3.80
2006,12,14,14,57,3.80
2006,12,14,14,58,3.70
2006,12,14,14,59,3.70
2006,12,14,15,00,3.70
2006,12,14,15,01,3.70
2006,12,14,15,02,3.70
2006,12,14,15,03,3.70
2006,12,14,15,04,3.70
2006,12,14,15,05,3.70
2006,12,14,15,06,3.70
2006,12,14,15,07,3.70
2006,12,14,15,08,3.70
2006,12,14,15,09,3.70
2006,12,14,15,10,3.70
2006,12,14,15,11,3.70
2006,12,14,15,12,3.80
2006,12,14,15,13,3.80
2006,12,14,15,14,3.80
2006,12,14,15,15,3.80
2006,12,14,15,16,3.80
2006,12,14,15,17,3.80
2006,12,14,15,18,3.80
2006,12,14,15,19,3.80
2006,12,14,15,20,3.80
2006,12,14,15,21,3.80
2006,12,14,15,22,3.80
2006,12,14,15,23,3.80
2006,12,14,15,24,3.80
2006,12,14,15,25,3.80
2006,12,14,15,26,3.80
2006,12,14,15,27,3.80
2006,12,14,15,28,3.80
2006,12,14,15,29,3.80
2006,12,14,15,30,3.80
2006,12,14,15,31,3.80
2006,12,14,15,32,3.80
2006,12,14,15,33,3.80
2006,12,14,15,34,3.80
2006,12,14,15,35,3.80
2006,12,14,15,36,3.80
2006,12,14,15,37,3.80
2006,12,14,15,38,3.80
2006,12,14,15,39,3.80
2006,12,14,15,40,3.80
2006,12,14,15,41,3.80
2006,12,14,15,42,3.80
2006,12,14,15,43,3.80
2006,12,14,15,44,3.80
2006,12,14,15,45,3.80
2006,12,14,15,46,3.80
2006,12,14,15,47,3.80
2006,12,14,15,48,3.70
2006,12,14,15,49,3.70
2006,12,14,15,50,3.70
2006,12,14,15,51,3.70
2006,12,14,15,52,3.70
2006,12,14,15,53,3.70
2006,12,14,15,54,3.70
2006,12,14,15,55,3.70
2006,12,14,15,56,3.60
2006,12,14,15,57,3.60
2006,12,14,15,58,3.60
2006,12,14,15,59,3.60
2006,12,14,16,00,3.60
2006,12,14,16,01,3.60
2006,12,14,16,02,3.50
2006,12,14,16,03,3.50
2006,12,14,16,04,3.50
2006,12,14,16,05,3.50
2006,12,14,16,06,3.50
2006,12,14,16,07,3.50
2006,12,14,16,08,3.50
2006,12,14,16,09,3.50
2006,12,14,16,10,3.50
2006,12,14,16,11,3.50
2006,12,14,16,12,3.50
2006,12,14,16,13,3.50
2006,12,14,16,14,3.50
2006,12,14,16,15,3.50
2006,12,14,16,16,3.50
2006,12,14,16,17,3.50
2006,12,14,16,18,3.50
2006,12,14,16,19,3.50
2006,12,14,16,20,3.50
2006,12,14,16,21,3.50
2006,12,14,16,22,3.50
2006,12,14,16,23,3.50
2006,12,14,16,24,3.50
2006,12,14,16,25,3.50
2006,12,14,16,26,3.50
2006,12,14,16,27,3.50
2006,12,14,16,28,3.50
2006,12,14,16,29,3.60
2006,12,14,16,30,3.60
2006,12,14,16,31,3.60
2006,12,14,16,32,3.60
2006,12,14,16,33,3.60
2006,12,14,16,34,3.60
2006,12,14,16,35,3.70
2006,12,14,16,36,3.70
2006,12,14,16,37,3.70
2006,12,14,16,38,3.70
2006,12,14,16,39,3.70
2006,12,14,16,40,3.80
2006,12,14,16,41,3.80
2006,12,14,16,42,3.80
2006,12,14,16,43,3.80
2006,12,14,16,44,3.80
2006,12,14,16,45,3.80
2006,12,14,16,46,3.80
2006,12,14,16,47,3.90
2006,12,14,16,48,4.00
2006,12,14,16,49,4.10
2006,12,14,16,50,4.20
2006,12,14,16,51,4.20
2006,12,14,16,52,4.30
2006,12,14,16,53,4.40
2006,12,14,16,54,4.50
2006,12,14,16,55,4.60
2006,12,14,16,56,4.70
2006,12,14,16,57,5.00
2006,12,14,16,58,5.10
2006,12,14,16,59,5.20
2006,12,14,17,00,5.40
2006,12,14,17,01,5.60
2006,12,14,17,02,5.80
2006,12,14,17,03,5.90
2006,12,14,17,04,6.10
2006,12,14,17,05,6.30
2006,12,14,17,06,6.40
2006,12,14,17,07,6.60
2006,12,14,17,08,6.70
2006,12,14,17,09,6.80
2006,12,14,17,10,6.90
2006,12,14,17,11,7.00
2006,12,14,17,12,7.00
2006,12,14,17,13,7.00
2006,12,14,17,14,7.00
2006,12,14,17,15,7.10
2006,12,14,17,16,7.10
2006,12,14,17,17,7.00
2006,12,14,17,18,7.00
2006,12,14,17,19,7.00
2006,12,14,17,20,7.00
2006,12,14,17,21,7.10
2006,12,14,17,22,7.10
2006,12,14,17,23,7.20
2006,12,14,17,24,7.20
2006,12,14,17,25,7.30
2006,12,14,17,26,7.30
2006,12,14,17,27,7.30
2006,12,14,17,28,7.30
2006,12,14,17,29,7.30
2006,12,14,17,30,7.30
2006,12,14,17,31,7.30
2006,12,14,17,32,7.30
2006,12,14,17,33,7.30
2006,12,14,17,34,7.30
2006,12,14,17,35,7.30
2006,12,14,17,36,7.30
2006,12,14,17,37,7.30
2006,12,14,17,38,7.30
2006,12,14,17,39,7.30
2006,12,14,17,40,7.30
2006,12,14,17,41,7.30
2006,12,14,17,42,7.30
2006,12,14,17,43,7.30
2006,12,14,17,44,7.30
2006,12,14,17,45,7.30
2006,12,14,17,46,7.30
2006,12,14,17,47,7.30
2006,12,14,17,48,7.30
2006,12,14,17,49,7.30
2006,12,14,17,50,7.30
2006,12,14,17,51,7.30
2006,12,14,17,52,7.30
2006,12,14,17,53,7.30
2006,12,14,17,54,7.20
2006,12,14,17,55,7.20
2006,12,14,17,56,7.20
2006,12,14,17,57,7.20
2006,12,14,17,58,7.20
2006,12,14,17,59,7.20
2006,12,14,18,00,7.20
2006,12,14,18,01,7.20
2006,12,14,18,02,7.20
2006,12,14,18,03,7.20
2006,12,14,18,04,7.20
2006,12,14,18,05,7.20
2006,12,14,18,06,7.20